STARLINK-34214 (64190 NORAD) Tracking and Keplerian Element Data

This shows tracking and keplerian element data for the satellite.

Feedback or suggestion? Click here.




ElementValue
Catalog64190
NameSTARLINK-34214
Epoch Orbit3265
Epoch Day352.64155107
Epoch Year2025
RAAN107.778
Inclination53.1585
Eccentricity0.0001338
Argument of Perigee68.292
Mean Anonmoly291.8224
Mean Motion15.30190868
Decay Rate0.00016154
L11 64190U 25113W 25352.64155107 .00016154 00000+0 55651-3 0 9999
L22 64190 53.1585 107.7780 0001338 68.2920 291.8224 15.30190868 32656



Live tracking and technical data element details for STARLINK-34214 (NORAD 64190). STARLINK-34214 can be tracked NOW for your location showing map with azimuth and elevation plus other details from your city location.







IsCatalogInMostPopularTable: catalog: 64190, numindb: 3
Update: records affected: 1



GetName: 64190 STARLINK-34214

Hit Count: updated at: Mon, 09 Feb 2026 08:31:08 GMT